• In Österreich
  • Länderverzeichnis
  • Für 7 Tage
  • Wassertemperatur
  • Satellitenkarten
  • Wetterkarte
  • News
  • Widgets
  • user-avatar
    Anmelden

    Stündliche Wetter Kuznik

    Heute, 22 Juli, Sonntag

    Zeit Temperatur Niederschläge Wind Luftdruck Luftfeuchtigkeit
    00:00 +17°C° 0 mm 2 m/S 753 mmHg 80%
    01:00 +18°C° 0 mm 1 m/S 753 mmHg 83%
    02:00 +18°C° 0 mm 1 m/S 753 mmHg 84%
    03:00 +16°C° 0 mm 1 m/S 753 mmHg 85%
    04:00 +16°C° 0 mm 1 m/S 753 mmHg 87%
    05:00 +18°C° 0 mm 1 m/S 754 mmHg 81%
    06:00 +19°C° 0 mm 1 m/S 754 mmHg 76%
    07:00 +21°C° 0 mm 1 m/S 754 mmHg 71%
    08:00 +21°C° 0 mm 2 m/S 754 mmHg 64%
    09:00 +24°C° 0 mm 2 m/S 754 mmHg 58%
    10:00 +25°C° 0 mm 2 m/S 754 mmHg 51%
    11:00 +26°C° 0 mm 2 m/S 754 mmHg 48%
    12:00 +27°C° 0 mm 2 m/S 754 mmHg 44%
    13:00 +28°C° 0 mm 3 m/S 754 mmHg 41%
    14:00 +28°C° 0 mm 2 m/S 754 mmHg 41%
    15:00 +28°C° 0 mm 2 m/S 753 mmHg 41%
    16:00 +28°C° 0 mm 2 m/S 753 mmHg 41%
    17:00 +27°C° 0 mm 2 m/S 753 mmHg 47%
    18:00 +26°C° 0 mm 2 m/S 753 mmHg 53%
    19:00 +25°C° 0 mm 1 m/S 753 mmHg 58%
    20:00 +24°C° 0 mm 1 m/S 754 mmHg 62%
    21:00 +22°C° 0 mm 1 m/S 754 mmHg 66%
    22:00 +21°C° 0 mm 1 m/S 754 mmHg 70%
    23:00 +21°C° 0 mm 1 m/S 754 mmHg 72%

    Morgen, 23 Juli, Montag

    Zeit Temperatur Niederschläge Wind Luftdruck Luftfeuchtigkeit
    00:00 +20°C° 0 mm 1 m/S 754 mmHg 74%
    01:00 +20°C° 0 mm 1 m/S 754 mmHg 76%
    02:00 +19°C° 0 mm 1 m/S 754 mmHg 77%
    03:00 +17°C° 0 mm 0 m/S 754 mmHg 79%
    04:00 +17°C° 0 mm 0 m/S 754 mmHg 81%
    05:00 +18°C° 0 mm 0 m/S 755 mmHg 76%
    06:00 +20°C° 0 mm 0 m/S 755 mmHg 71%
    07:00 +21°C° 0 mm 0 m/S 755 mmHg 66%
    08:00 +25°C° 0 mm 1 m/S 755 mmHg 61%
    09:00 +27°C° 0 mm 1 m/S 755 mmHg 55%
    10:00 +28°C° 0 mm 1 m/S 755 mmHg 49%
    11:00 +29°C° 0 mm 1 m/S 755 mmHg 47%
    12:00 +29°C° 0 mm 2 m/S 755 mmHg 46%
    13:00 +29°C° 0 mm 2 m/S 755 mmHg 44%
    14:00 +29°C° 0 mm 2 m/S 755 mmHg 46%
    15:00 +29°C° 0 mm 2 m/S 755 mmHg 47%
    16:00 +29°C° 0 mm 3 m/S 755 mmHg 48%
    17:00 +28°C° 0 mm 3 m/S 755 mmHg 53%
    18:00 +27°C° 0 mm 2 m/S 755 mmHg 58%
    19:00 +26°C° 0 mm 2 m/S 755 mmHg 63%
    20:00 +24°C° 0 mm 2 m/S 756 mmHg 70%
    21:00 +23°C° 0 mm 2 m/S 756 mmHg 76%
    22:00 +20°C° 0 mm 2 m/S 756 mmHg 83%
    23:00 +20°C° 0 mm 2 m/S 756 mmHg 85%

    übermorgen, 24 Juli, Dienstag

    Zeit Temperatur Niederschläge Wind Luftdruck Luftfeuchtigkeit
    00:00 +19°C° 0 mm 2 m/S 756 mmHg 87%
    01:00 +19°C° 0 mm 1 m/S 756 mmHg 89%
    02:00 +19°C° 0 mm 1 m/S 756 mmHg 89%
    03:00 +19°C° 0 mm 1 m/S 756 mmHg 90%
    04:00 +18°C° 0 mm 1 m/S 756 mmHg 90%
    05:00 +20°C° 0 mm 1 m/S 756 mmHg 85%
    06:00 +20°C° 0 mm 2 m/S 756 mmHg 79%
    07:00 +21°C° 0 mm 2 m/S 756 mmHg 73%
    08:00 +24°C° 0 mm 2 m/S 756 mmHg 68%
    09:00 +25°C° 0 mm 2 m/S 756 mmHg 62%
    10:00 +27°C° 0 mm 2 m/S 756 mmHg 56%
    11:00 +28°C° 0,2 mm 2 m/S 756 mmHg 55%
    12:00 +28°C° 0,2 mm 2 m/S 756 mmHg 54%
    13:00 +29°C° 0,2 mm 2 m/S 756 mmHg 52%
    14:00 +29°C° 0,7 mm 3 m/S 755 mmHg 55%
    15:00 +29°C° 0,7 mm 3 m/S 755 mmHg 57%
    16:00 +28°C° 0,7 mm 3 m/S 755 mmHg 60%
    17:00 +27°C° 0,3 mm 3 m/S 755 mmHg 65%
    18:00 +26°C° 0,3 mm 2 m/S 755 mmHg 71%
    19:00 +26°C° 0,3 mm 2 m/S 755 mmHg 77%
    20:00 +24°C° 0 mm 2 m/S 755 mmHg 81%
    21:00 +23°C° 0 mm 2 m/S 755 mmHg 85%
    22:00 +21°C° 0 mm 2 m/S 756 mmHg 89%
    23:00 +20°C° 0 mm 2 m/S 756 mmHg 91%

    25 Juli, Mittwoch

    Zeit Temperatur Niederschläge Wind Luftdruck Luftfeuchtigkeit
    00:00 +20°C° 0 mm 2 m/S 756 mmHg 92%
    01:00 +19°C° 0 mm 2 m/S 756 mmHg 93%
    02:00 +20°C° 0 mm 1 m/S 756 mmHg 93%
    03:00 +19°C° 0 mm 1 m/S 756 mmHg 94%
    04:00 +19°C° 0 mm 1 m/S 756 mmHg 94%
    05:00 +20°C° 0 mm 1 m/S 756 mmHg 89%
    06:00 +21°C° 0 mm 1 m/S 756 mmHg 83%
    07:00 +23°C° 0 mm 1 m/S 756 mmHg 77%
    08:00 +24°C° 0,2 mm 2 m/S 756 mmHg 71%
    09:00 +26°C° 0,2 mm 2 m/S 756 mmHg 64%
    10:00 +28°C° 0,2 mm 2 m/S 756 mmHg 57%
    11:00 +29°C° 0,2 mm 2 m/S 756 mmHg 54%
    12:00 +29°C° 0,2 mm 3 m/S 756 mmHg 51%
    13:00 +30°C° 0,2 mm 3 m/S 756 mmHg 49%
    14:00 +30°C° 0 mm 3 m/S 755 mmHg 48%
    15:00 +30°C° 0 mm 3 m/S 755 mmHg 47%
    16:00 +31°C° 0 mm 3 m/S 755 mmHg 46%
    17:00 +29°C° 0 mm 3 m/S 755 mmHg 51%
    18:00 +28°C° 0 mm 3 m/S 755 mmHg 57%
    19:00 +27°C° 0 mm 2 m/S 756 mmHg 62%
    20:00 +26°C° 0 mm 2 m/S 756 mmHg 67%
    21:00 +24°C° 0 mm 2 m/S 756 mmHg 71%
    22:00 +23°C° 0 mm 2 m/S 756 mmHg 76%
    23:00 +21°C° 0 mm 2 m/S 756 mmHg 78%

    26 Juli, Donnerstag

    Zeit Temperatur Niederschläge Wind Luftdruck Luftfeuchtigkeit
    00:00 +20°C° 0 mm 2 m/S 756 mmHg 80%
    01:00 +20°C° 0 mm 2 m/S 757 mmHg 82%
    02:00 +19°C° 0 mm 2 m/S 757 mmHg 84%
    03:00 +19°C° 0 mm 2 m/S 757 mmHg 85%
    04:00 +19°C° 0 mm 1 m/S 757 mmHg 87%
    05:00 +20°C° 0 mm 2 m/S 757 mmHg 82%
    06:00 +21°C° 0 mm 2 m/S 757 mmHg 77%
    07:00 +23°C° 0 mm 2 m/S 758 mmHg 72%
    08:00 +25°C° 0 mm 2 m/S 758 mmHg 65%
    09:00 +26°C° 0 mm 2 m/S 758 mmHg 57%
    10:00 +28°C° 0 mm 2 m/S 758 mmHg 49%
    11:00 +29°C° 0 mm 2 m/S 758 mmHg 45%
    12:00 +30°C° 0 mm 2 m/S 757 mmHg 42%
    13:00 +31°C° 0 mm 2 m/S 757 mmHg 38%
    14:00 +31°C° 0 mm 3 m/S 757 mmHg 38%
    15:00 +31°C° 0 mm 3 m/S 757 mmHg 38%
    16:00 +31°C° 0 mm 3 m/S 757 mmHg 38%
    17:00 +30°C° 0 mm 3 m/S 757 mmHg 45%
    18:00 +29°C° 0 mm 3 m/S 757 mmHg 51%
    19:00 +28°C° 0 mm 2 m/S 757 mmHg 58%
    20:00 +26°C° 0 mm 2 m/S 757 mmHg 63%
    21:00 +25°C° 0 mm 2 m/S 758 mmHg 68%
    22:00 +24°C° 0 mm 3 m/S 758 mmHg 73%
    23:00 +23°C° 0 mm 2 m/S 758 mmHg 76%

    27 Juli, Freitag

    Zeit Temperatur Niederschläge Wind Luftdruck Luftfeuchtigkeit
    00:00 +21°C° 0 mm 2 m/S 758 mmHg 79%
    01:00 +20°C° 0 mm 2 m/S 758 mmHg 83%
    02:00 +20°C° 0 mm 2 m/S 758 mmHg 84%
    03:00 +19°C° 0 mm 2 m/S 758 mmHg 85%
    04:00 +19°C° 0 mm 2 m/S 758 mmHg 86%
    05:00 +20°C° 0 mm 2 m/S 758 mmHg 81%
    06:00 +21°C° 0 mm 2 m/S 758 mmHg 75%
    07:00 +23°C° 0 mm 2 m/S 758 mmHg 70%
    08:00 +25°C° 0 mm 2 m/S 758 mmHg 63%
    09:00 +26°C° 0 mm 2 m/S 758 mmHg 55%
    10:00 +28°C° 0 mm 2 m/S 758 mmHg 48%
    11:00 +29°C° 0 mm 2 m/S 757 mmHg 46%
    12:00 +30°C° 0 mm 2 m/S 757 mmHg 43%
    13:00 +31°C° 0 mm 2 m/S 756 mmHg 41%
    14:00 +31°C° 0 mm 2 m/S 756 mmHg 42%
    15:00 +31°C° 0 mm 3 m/S 756 mmHg 43%
    16:00 +31°C° 0 mm 3 m/S 756 mmHg 45%
    17:00 +30°C° 0 mm 3 m/S 756 mmHg 51%
    18:00 +29°C° 0 mm 2 m/S 756 mmHg 58%
    19:00 +28°C° 0 mm 2 m/S 756 mmHg 65%
    20:00 +27°C° 0,2 mm 2 m/S 756 mmHg 71%
    21:00 +25°C° 0,2 mm 2 m/S 756 mmHg 77%
    22:00 +24°C° 0,2 mm 2 m/S 756 mmHg 84%
    23:00 +23°C° 0 mm 2 m/S 756 mmHg 86%
    Mehr zeigen